Hourly Data Report for June 13, 2017

TORONTO CITY
ONTARIO

43°40'00.000" N
79°24'00.000" W
112.50 m
6158355
71508
XTO

Download Data

Hourly Data (June 2017)
Hourly Data Report for June 13, 2017
TIME
LST
Temp Definition
°C
Dew Point Definition
°C
Rel Hum Definition
%
Precip. Amount Definition
mm

Wind Dir Definition
10's deg

Wind Spd Definition
km/h
Visibility Definition
km
Stn Press Definition
kPa
Hmdx Definition


Wind Chill Definition


Weather Definition


00:00 24.5 15.8 58 0.0 LegendMM LegendMM   99.90 29   LegendNANA
01:00 25.4 16.2 57 0.0 LegendMM LegendMM   99.91 30   LegendNANA
02:00 24.4 17.3 65 0.0 LegendMM LegendMM   99.91 30   LegendNANA
03:00 24.1 18.4 71 0.0 LegendMM LegendMM   99.94 30   LegendNANA
04:00 24.2 17.9 68 0.0 LegendMM LegendMM   100.03 30   LegendNANA
05:00 23.0 10.0 44 0.0 LegendMM LegendMM   100.08     LegendNANA
06:00 22.5 8.0 40 0.0 LegendMM LegendMM   100.06     LegendNANA
07:00 22.7 9.0 42 0.0 LegendMM LegendMM   100.18     LegendNANA
08:00 22.4 10.1 46 0.0 LegendMM LegendMM   100.20     LegendNANA
09:00 22.3 10.7 48 0.0 LegendMM LegendMM   100.17     LegendNANA
10:00 23.5 11.5 47 0.0 LegendMM LegendMM   100.22 26   LegendNANA
11:00 23.0 13.5 55 0.0 LegendMM LegendMM   100.24 26   LegendNANA
12:00 22.4 13.6 58 0.0 LegendMM LegendMM   100.25 26   LegendNANA
13:00 20.3 15.8 75 0.0 LegendMM LegendMM   100.30 25   LegendNANA
14:00 20.2 13.8 67 0.0 LegendMM LegendMM   100.23     LegendNANA
15:00 21.1 14.1 64 0.0 LegendMM LegendMM   100.21 25   LegendNANA
16:00 22.7 15.1 62 0.0 LegendMM LegendMM   100.20 27   LegendNANA
17:00 23.2 15.6 62 0.0 LegendMM LegendMM   100.19 28   LegendNANA
18:00 22.5 16.0 67 0.0 LegendMM LegendMM   100.20 27   LegendNANA
19:00 22.3 16.4 69 0.0 LegendMM LegendMM   100.19 27   LegendNANA
20:00 21.6 16.3 72 0.0 LegendMM LegendMM   100.24 26   LegendNANA
21:00 20.1 16.0 78 0.0 LegendMM LegendMM   100.30 25   LegendNANA
22:00 19.9 16.3 80 0.0 LegendMM LegendMM   100.30     LegendNANA
23:00 19.9 16.5 81 0.0 LegendMM LegendMM   100.29     LegendNANA

Notes on Data Quality.

Legend

  • E = Estimated
  • M = Missing
  • NA = Not Available*
  • [empty] = Indicates an unobserved value
Date modified: